SNUSAT-1B (42733 NORAD) Tracking and Keplerian Element Data

This shows tracking and keplerian element data for the satellite.

Feedback or suggestion? Click here.




ElementValue
Catalog42733
NameSNUSAT-1B
Epoch Orbit6477
Epoch Day196.08750543
Epoch Year2018
RAAN214.5403
Inclination51.6328
Eccentricity0.0005034
Argument of Perigee311.5754
Mean Anonmoly48.4811
Mean Motion15.71368757
Decay Rate0.00021457
L11 42733U 98067MN 18196.08750543 .00021457 00000-0 16913-3 0 9998
L22 42733 51.6328 214.5403 0005034 311.5754 48.4811 15.71368757 64773

Live tracking and technical data element details for SNUSAT-1B (NORAD 42733). SNUSAT-1B can be tracked NOW for your location showing map with azimuth and elevation plus other details from your city location.

Track the satellite on the map from your city or location and see movement details for azimuth, elevation, latitude, longitude, range, height, and movement on the map or in text.







IsCatalogInMostPopularTable: catalog: 42733, numindb: 101
Update: records affected: 1



GetName: 42733 SNUSAT-1B

Hit Count: updated at: Sun, 15 Jul 2018 23:17:10 GMT